Regional Weather Roundup
Issued by NWS

Home | Current Version | Previous Version | Text Only | Print | Product List | Glossary On
Versions: 1 2 3 4 5 6 7 8 9 10 11 12 13 14 15 16 17 18 19 20 21 22 23 24 25 26 27 28 29 30 31 32 33 34 35 36 37 38 39 40 41 42 43 44 45 46 47 48 49 50
000
ASUS44 KMEG 180010
RWRTN
TENNESSEE HOURLY STATE WEATHER ROUNDUP
NATIONAL WEATHER SERVICE MEMPHIS TN
600 PM CST WED JAN 17 2018

TNZ002-004-019-021-049-052-054-088>092-180100-
WEST TENNESSEE

CITY           SKY/WX    TMP DP  RH WIND       PRES   REMARKS
MEMPHIS INTL   FAIR      17  10  74 NW7       30.65F WCI   8
NWS MEMPHIS      N/A     17 N/A N/A MISG        N/A
JACKSON        FAIR      12   6  77 CALM      30.65F
DYERSBURG      FAIR       9   2  73 CALM      30.67S
SOMERVILLE     CLEAR     16   9  73 CALM      30.63F
COVINGTON      CLEAR     12   7  79 CALM      30.67S
UNION CITY     CLEAR     12   7  79 SW5       30.65F WCI   4
BOLIVAR        CLEAR     16   9  73 CALM      30.63F
PARIS          CLEAR     10   5  79 SW3       30.62S
HUNTINGDON     CLEAR     14   7  73 W5        30.62F WCI   6
LEXINGTON      CLEAR     18   7  62 NW5       30.63S WCI  11
SELMER         CLEAR     16   9  73 CALM      30.61F
SAVANNAH       CLEAR     19   9  63 NW5       30.62S WCI  13
$$

TNZ008-025-027-028-033-062-065-066-180100-
NORTH MIDDLE TENNESSEE

CITY           SKY/WX    TMP DP  RH WIND       PRES   REMARKS
NASHVILLE      FAIR      17   7  64 N7        30.61S WCI   8
PORTLAND       CLEAR     12   7  79 CALM      30.58S
CLARKSVILLE    FAIR      12   4  70 CALM      30.61F
SMYRNA         FAIR      15   8  73 N7        30.62S WCI   5
COOKEVILLE     CLOUDY    16  10  79 NW5       30.54S WCI   9
GALLATIN       CLEAR     14   7  73 NW3       30.64R
CROSSVILLE     CLOUDY    11   5  77 NW6       30.45S WCI   1
$$

TNZ061-075-076-078-094-096-097-180100-
SOUTH MIDDLE TENNESSEE

CITY           SKY/WX    TMP DP  RH WIND       PRES   REMARKS
FAYETTEVILLE   CLEAR     16   9  73 N6        30.53F WCI   7
TULLAHOMA      CLEAR     12   7  79 N6        30.53F WCI   3
WINCHESTER     CLEAR     12   7  79 N6        30.54F WCI   3
MCMINNVILLE    CLOUDY    14   9  79 N5        30.55S WCI   6
COLUMBIA       CLEAR     19   9  63 CALM      30.57S
SHELBYVILLE    PTCLDY    12   7  79 NE3       30.57F
$$

TNZ017-018-042-046-047-180100-
NORTHEAST TENNESSEE

CITY           SKY/WX    TMP DP  RH WIND       PRES   REMARKS
TRI CITIES     FAIR      14   4  64 N5        30.41R WCI   6
ELIZABETHTON   MOCLDY    16   5  62 CALM      30.40R
$$

TNZ012-013-036-069-073-074-180100-
CENTRAL EAST TENNESSEE

CITY           SKY/WX    TMP DP  RH WIND       PRES   REMARKS
KNOXVILLE      CLEAR     15   6  67 N8        30.50R WCI   4
OAK RIDGE      FAIR      16   6  65 CALM      30.52S
DOWNTOWN KNOXV CLEAR     16   7  67 VRB5      30.54R WCI   9
GATLINBURG     PTCLDY    16   7  67 NW8       30.51R WCI   5
MORRISTOWN     CLEAR     14   5  67 N9        30.46R WCI   2
JACKSBORO      CLOUDY    14   7  73 CALM      30.53S
$$

TNZ083-085-099-180100-
SOUTHEAST TENNESSEE

CITY           SKY/WX    TMP DP  RH WIND       PRES   REMARKS
CHATTANOOGA    FAIR      19   6  57 NW15      30.54R WCI   5
DAYTON         CLEAR     18  10  73 N7G14     30.54R WCI   8
$$

SKY/WX REPORTED AS FAIR MEANS FEW OR NO CLOUDS BELOW
12 THOUSAND FEET.





USA.gov is the U.S. government's official web portal to all federal, state and local government web resources and services.